STARLINK-32478

Last updated on Thu Nov 21 2024 00:02:05 GMT+0000 (Coordinated Universal Time)

1 61726U 24196V 24325.58335648 -.01405079 00000+0 -13441-1 0 9993 2 61726 53.1595 149.2691 0000993 89.2081 65.1429 15.69100996 4370
UTC large
Height (km)
Speed (km/s)
/
Latitude / Longitude
Inclination (degrees)
Orbital Period (minutes)
Azimuth
Elevation
Range (km)
Doppler Factor

Next 0 passes for location: London (51.5072 / 0.1276)

Sorry there are no passes over London.